Location: D�derode
(51.8092°N, 10.1065°E)
Time: 19:57:49
(UTC+00:00)

Cosmos 2221 - Pass Details

Date: 01 December 2020
Orbit: 593 x 615 km, 82.5° (Epoch: 24 January)

Event Time Altitude Azimuth Distance (km) Brightness Sun altitude
Rises 16:14:22 0° 212° (SSW) 2,854 7.0 -9.1°
Reaches altitude 10° 16:16:44 10° 222° (SW) 1,951 6.3 -9.5°
Maximum altitude 16:20:42 35° 289° (WNW) 979 4.1 -10.0°
Drops below altitude 10° 16:24:41 10° 356° (N) 1,953 4.9 -10.6°
Sets 16:27:03 0° 5° (N) 2,858 5.7 -10.9°
